TimeCST,TemperatureF,Dew PointF,Humidity,Sea Level PressureIn,VisibilityMPH,Wind Direction,Wind SpeedMPH,Gust SpeedMPH,PrecipitationIn,Events,Conditions,WindDirDegrees,DateUTC
12:53 AM,54.0,32.0,43,30.10,10.0,SSE,10.4,-,N/A,,Overcast,160,2013-12-20 06:53:00
1:53 AM,54.0,35.1,49,30.09,10.0,SSE,11.5,-,N/A,,Overcast,150,2013-12-20 07:53:00
2:53 AM,55.0,37.9,53,30.10,10.0,SSE,8.1,-,N/A,,Overcast,160,2013-12-20 08:53:00
3:53 AM,53.1,39.9,61,30.10,10.0,SE,9.2,-,N/A,,Mostly Cloudy,140,2013-12-20 09:53:00
4:53 AM,54.0,42.1,64,30.11,10.0,SE,6.9,-,N/A,,Overcast,140,2013-12-20 10:53:00
5:40 AM,55.4,42.8,63,30.10,10.0,SE,8.1,-,N/A,,Overcast,130,2013-12-20 11:40:00
5:53 AM,55.0,43.0,64,30.10,10.0,ESE,8.1,-,N/A,,Overcast,120,2013-12-20 11:53:00
6:53 AM,55.0,44.1,67,30.10,10.0,SSE,8.1,-,N/A,,Overcast,150,2013-12-20 12:53:00
7:53 AM,57.0,45.0,64,30.12,10.0,SSE,4.6,-,N/A,,Overcast,150,2013-12-20 13:53:00
8:53 AM,60.1,48.0,64,30.12,10.0,South,10.4,-,N/A,,Overcast,170,2013-12-20 14:53:00
9:53 AM,63.0,51.1,65,30.10,10.0,South,10.4,-,N/A,,Overcast,170,2013-12-20 15:53:00
10:40 AM,64.4,53.6,68,30.10,10.0,South,16.1,-,N/A,,Overcast,190,2013-12-20 16:40:00
10:53 AM,64.9,53.1,65,30.09,10.0,South,13.8,-,N/A,,Overcast,180,2013-12-20 16:53:00
11:53 AM,66.0,54.0,65,30.06,10.0,SSW,13.8,20.7,N/A,,Overcast,210,2013-12-20 17:53:00
12:53 PM,66.9,55.9,68,30.03,10.0,South,11.5,-,N/A,,Overcast,190,2013-12-20 18:53:00
1:08 PM,66.2,55.4,68,30.03,10.0,South,13.8,-,N/A,,Overcast,180,2013-12-20 19:08:00
1:37 PM,66.2,55.4,68,30.02,10.0,South,10.4,-,N/A,,Overcast,180,2013-12-20 19:37:00
1:53 PM,66.9,55.9,68,30.01,10.0,South,12.7,-,N/A,,Overcast,180,2013-12-20 19:53:00
2:21 PM,68.0,55.4,64,30.01,10.0,South,12.7,-,N/A,,Overcast,170,2013-12-20 20:21:00
2:53 PM,66.9,55.9,68,30.01,10.0,South,10.4,-,N/A,,Overcast,170,2013-12-20 20:53:00
3:53 PM,66.0,55.9,70,30.01,10.0,South,12.7,-,N/A,,Overcast,180,2013-12-20 21:53:00
4:53 PM,64.9,55.9,73,30.02,10.0,SSE,10.4,-,N/A,,Overcast,160,2013-12-20 22:53:00
5:32 PM,66.2,55.4,68,30.03,10.0,SSE,11.5,-,N/A,,Overcast,150,2013-12-20 23:32:00
5:53 PM,64.9,55.9,73,30.03,10.0,SSE,11.5,-,N/A,,Overcast,150,2013-12-20 23:53:00
6:25 PM,64.4,55.4,73,30.03,10.0,SSE,12.7,-,N/A,,Overcast,150,2013-12-21 00:25:00
6:32 PM,64.4,55.4,73,30.03,10.0,SSE,12.7,-,N/A,,Overcast,160,2013-12-21 00:32:00
6:53 PM,64.9,55.0,70,30.03,10.0,SSE,13.8,-,N/A,,Overcast,160,2013-12-21 00:53:00
7:11 PM,64.4,55.4,73,30.03,10.0,SSE,12.7,-,N/A,,Overcast,160,2013-12-21 01:11:00
7:53 PM,63.0,55.0,75,30.03,10.0,SSE,10.4,-,N/A,,Overcast,160,2013-12-21 01:53:00
8:53 PM,63.0,55.0,75,30.02,10.0,South,11.5,-,N/A,,Overcast,170,2013-12-21 02:53:00
9:53 PM,64.0,55.9,75,30.01,10.0,South,11.5,-,N/A,,Overcast,170,2013-12-21 03:53:00
10:05 PM,64.4,57.2,77,30.01,10.0,South,12.7,-,N/A,,Overcast,170,2013-12-21 04:05:00
10:28 PM,64.4,57.2,77,30.01,10.0,SSE,16.1,-,N/A,,Overcast,160,2013-12-21 04:28:00
10:53 PM,64.0,57.0,78,29.99,10.0,SSE,13.8,-,N/A,,Mostly Cloudy,160,2013-12-21 04:53:00
11:53 PM,64.0,57.9,80,29.97,10.0,SSE,16.1,21.9,N/A,,Overcast,160,2013-12-21 05:53:00